EW0125 Weather Reports


time (UTC)temp
F
wind
direction
speed
knots
gust
knots
rain 1hr
in
rain 24hr
in
rain mn
in
humidity
%
barometer
mb
20260502195054 60 123 1.7 5.2 0.00 0.00 0.00 47 1011.6
20260502194555 60 36 2.6 5.2 0.00 0.00 0.00 47 1011.6
20260502194052 60 71 1.7 7.0 0.00 0.00 0.00 48 1011.6
20260502193552 60 17 1.7 7.0 0.00 0.00 0.00 49 1011.9
20260502193055 60 17 1.7 7.0 0.00 0.00 0.00 49 1011.8
20260502192552 60 38 2.6 7.8 0.00 0.00 0.00 49 1011.8
20260502192055 60 5 2.6 7.8 0.00 0.00 0.00 49 1011.9
20260502191603 60 360 0.9 7.0 0.00 0.00 0.00 49 1011.8
20260502191055 60 360 1.7 7.0 0.00 0.00 0.00 49 1011.9
20260502190556 60 287 1.7 7.0 0.00 0.00 0.00 49 1012.0
20260502190100 60 34 2.6 7.0 0.00 0.00 0.00 50 1012.2
20260502185551 60 320 1.7 7.0 0.00 0.00 0.00 49 1012.1
20260502185053 60 31 2.6 7.0 0.00 0.00 0.00 50 1012.3
20260502184555 60 32 1.7 5.2 0.00 0.00 0.00 50 1012.2
20260502184051 60 360 2.6 5.2 0.00 0.00 0.00 50 1012.1
20260502183556 60 348 2.6 7.0 0.00 0.00 0.00 50 1012.1
20260502183056 60 103 2.6 7.0 0.00 0.00 0.00 50 1012.1
20260502182552 60 39 2.6 7.0 0.00 0.00 0.00 51 1012.3
20260502182052 60 105 1.7 7.0 0.00 0.00 0.00 51 1012.3
20260502181555 59 5 0.9 7.8 0.00 0.00 0.00 51 1012.4
20260502181052 59 29 2.6 9.6 0.00 0.00 0.00 51 1012.6
20260502180554 59 26 3.5 9.6 0.00 0.00 0.00 51 1012.8
20260502170106 56 355 2.6 7.0 0.00 0.00 0.00 55 1014.0
20260502164052 56 34 0.9 7.0 0.00 0.00 0.00 55 1013.9
20260502163552 56 338 2.6 7.0 0.00 0.00 0.00 55 1013.8
20260502163058 56 20 2.6 8.7 0.00 0.00 0.00 56 1013.8
20260502162552 56 348 3.5 9.6 0.00 0.00 0.00 56 1013.8
20260502162051 56 51 4.3 9.6 0.00 0.00 0.00 55 1013.7
20260502161605 56 56 4.3 8.7 0.00 0.00 0.00 55 1013.7
20260502161052 57 339 3.5 7.8 0.00 0.00 0.00 56 1013.7
20260502160554 57 59 2.6 8.7 0.00 0.00 0.00 57 1013.7
20260502152055 56 351 2.6 10.4 0.00 0.00 0.00 62 1014.1
20260502151612 56 31 3.5 10.4 0.00 0.00 0.00 62 1013.8
20260502151053 56 61 4.3 10.4 0.00 0.00 0.00 62 1013.6
20260502150554 56 342 3.5 7.0 0.00 0.00 0.00 63 1013.8
20260502130552 54 58 2.6 10.4 0.00 0.00 0.00 76 1013.5
20260502130106 54 88 1.7 10.4 0.00 0.00 0.00 76 1013.5
20260502123553 53 41 2.6 7.0 0.00 0.00 0.00 79 1013.3
20260502123057 53 57 1.7 7.8 0.00 0.00 0.00 80 1013.3
20260502122553 53 0 2.6 7.8 0.00 0.00 0.00 80 1013.3
20260502122052 53 0 0.9 3.5 0.00 0.00 0.00 81 1013.2
20260502121557 53 47 0.9 3.5 0.00 0.00 0.00 81 1013.0
20260502121052 52 47 1.7 3.5 0.00 0.00 0.00 81 1012.9
20260502120552 52 0 0.0 2.6 0.00 0.00 0.00 82 1012.9
20260502115553 52 0 0.0 4.3 0.00 0.00 0.00 82 1012.8
20260502115052 52 31 0.9 4.3 0.00 0.00 0.00 82 1012.9
20260502114557 51 29 0.0 4.3 0.00 0.00 0.00 83 1012.9
20260502114052 51 53 0.9 3.5 0.00 0.00 0.00 83 1012.9
20260502113552 51 75 0.0 3.5 0.00 0.00 0.00 84 1012.9
20260502113058 51 74 0.9 3.5 0.00 0.00 0.00 84 1013.0
20260502112554 51 149 0.0 2.6 0.00 0.00 0.00 85 1013.0
20260502112051 50 0 0.0 2.6 0.00 0.00 0.00 85 1012.9
20260502111557 50 0 0.0 2.6 0.00 0.00 0.00 86 1012.9
20260502111053 50 189 0.0 2.6 0.00 0.00 0.00 86 1012.9
20260502110551 50 0 0.0 2.6 0.00 0.00 0.00 86 1012.9
20260502105554 50 0 0.0 2.6 0.00 0.00 0.00 86 1013.1
20260502105053 49 0 0.0 0.0 0.00 0.00 0.00 86 1013.0
20260502104557 49 0 0.0 0.0 0.00 0.00 0.00 86 1012.9
20260502104052 49 0 0.0 0.0 0.00 0.00 0.00 86 1013.0
20260502103554 49 0 0.0 0.0 0.00 0.00 0.00 86 1013.0
20260502103106 49 0 0.0 0.0 0.00 0.00 0.00 85 1012.7
20260502102552 49 0 0.0 0.0 0.00 0.00 0.00 85 1012.6
20260502102051 49 0 0.0 0.0 0.00 0.00 0.00 85 1012.6
20260502101613 49 0 0.0 0.0 0.00 0.00 0.00 85 1012.3
20260502101051 49 0 0.0 0.0 0.00 0.00 0.00 85 1012.2
20260502100553 49 0 0.0 0.0 0.00 0.00 0.00 85 1012.2
20260502100106 50 0 0.0 0.0 0.00 0.00 0.00 85 1012.3
20260502091053 50 0 0.0 0.0 0.00 0.00 0.00 84 1012.0
20260502090552 50 0 0.0 0.0 0.00 0.00 0.00 84 1012.0
20260502090114 50 0 0.0 0.0 0.00 0.00 0.00 84 1012.1
20260502071053 51 0 0.0 0.9 0.00 0.00 0.00 81 1011.6
20260502070554 51 0 0.0 1.7 0.00 0.00 0.00 81 1011.6
20260502070110 51 0 0.0 1.7 0.00 0.00 0.00 81 1011.8
20260502065554 51 190 0.0 1.7 0.00 0.00 0.00 81 1011.6
20260502065054 51 190 0.0 1.7 0.00 0.00 0.00 81 1011.7
20260502064618 51 0 0.0 0.0 0.00 0.00 0.00 81 1011.6
20260502064053 51 0 0.0 0.0 0.00 0.00 0.00 80 1011.5
20260502063553 51 0 0.0 0.0 0.00 0.00 0.00 80 1011.3
20260502063057 51 0 0.0 0.0 0.00 0.00 0.00 80 1011.5
20260502062552 51 0 0.0 0.0 0.00 0.00 0.00 80 1011.4
20260502062052 51 0 0.0 0.0 0.00 0.00 0.00 79 1011.5
20260502061552 51 0 0.0 0.0 0.00 0.00 0.00 78 1011.7
20260502061053 51 0 0.0 0.0 0.00 0.00 0.00 78 1011.9
20260502060552 51 0 0.0 0.0 0.00 0.00 0.00 78 1011.8
20260502060058 51 0 0.0 0.0 0.00 0.00 0.00 77 1011.9
20260502055553 51 0 0.0 0.0 0.00 0.00 0.00 77 1011.9
20260502055052 51 0 0.0 0.0 0.00 0.00 0.00 77 1012.0
20260502054600 51 0 0.0 0.0 0.00 0.00 0.00 77 1012.0
20260502054056 52 0 0.0 0.0 0.00 0.00 0.00 77 1012.1
20260502053556 52 0 0.0 0.0 0.00 0.00 0.00 77 1012.3
20260502053056 52 0 0.0 0.0 0.00 0.00 0.00 76 1012.3
20260502052551 52 0 0.0 0.0 0.00 0.00 0.00 76 1012.3
20260502052053 52 0 0.0 0.0 0.00 0.00 0.00 76 1012.3
20260502051556 52 0 0.0 0.0 0.00 0.00 0.00 76 1012.3
20260502051053 53 0 0.0 0.0 0.00 0.00 0.00 75 1012.4
20260502050553 53 0 0.0 0.0 0.00 0.00 0.00 76 1012.4
20260502050054 53 0 0.0 0.0 0.00 0.00 0.00 75 1012.6
20260502045553 53 0 0.0 0.0 0.00 0.00 0.00 75 1012.7
20260502045053 53 0 0.0 0.9 0.00 0.00 0.00 74 1012.6
20260502044559 53 0 0.0 0.9 0.00 0.00 0.00 74 1012.6
20260502044050 53 0 0.0 0.9 0.00 0.00 0.00 74 1012.6
20260502043553 54 0 0.0 2.6 0.00 0.00 0.00 74 1012.7
20260502043058 54 0 0.0 3.5 0.00 0.00 0.00 74 1012.6
20260502042556 54 0 0.0 3.5 0.00 0.00 0.00 74 1012.6
20260502042052 54 190 0.0 3.5 0.00 0.00 0.00 74 1012.6
20260502041604 54 200 0.0 3.5 0.00 0.00 0.00 73 1012.7
20260502041052 54 0 0.9 3.5 0.00 0.00 0.00 73 1012.6
20260502040551 54 200 0.0 3.5 0.00 0.00 0.00 73 1012.5
20260502040057 54 200 0.9 3.5 0.00 0.00 0.00 73 1012.5
20260502035552 54 200 0.9 3.5 0.00 0.00 0.00 72 1012.5
20260502035053 54 0 0.9 6.1 0.00 0.00 0.00 72 1012.5
20260502034555 54 239 0.9 7.8 0.00 0.00 0.00 72 1012.7
20260502034054 54 251 0.9 7.8 0.00 0.00 0.00 72 1012.6
20260502033552 54 0 0.9 5.2 0.00 0.00 0.00 71 1012.9
20260502033101 54 189 0.0 5.2 0.00 0.00 0.00 71 1012.7
20260502032553 55 188 1.7 5.2 0.00 0.00 0.00 70 1012.6
20260502032055 55 0 0.0 3.5 0.00 0.00 0.00 70 1012.7
20260502031559 55 186 0.0 3.5 0.00 0.00 0.00 70 1012.5
20260502031053 55 186 0.9 5.2 0.00 0.00 0.00 69 1012.4
20260502030553 55 184 0.9 5.2 0.00 0.00 0.00 69 1012.3
20260502030058 55 182 0.9 4.3 0.00 0.00 0.00 68 1012.2
20260502025552 56 190 0.0 2.6 0.00 0.00 0.00 68 1012.4
20260502025057 56 190 0.0 3.5 0.00 0.00 0.00 68 1012.1
20260502024608 56 190 0.9 3.5 0.00 0.00 0.00 68 1012.1
20260502024055 56 190 0.0 5.2 0.00 0.00 0.00 68 1012.3
20260502023553 56 190 0.9 5.2 0.00 0.00 0.00 67 1012.2
20260502023140 56 192 0.9 4.3 0.00 0.00 0.00 67 1012.3
20260502022556 56 192 0.9 4.3 0.00 0.00 0.00 66 1012.3
20260502022054 56 181 0.9 3.5 0.00 0.00 0.00 65 1012.3
20260502021556 57 181 0.0 3.5 0.00 0.00 0.00 65 1012.2
20260502021053 57 181 0.0 4.3 0.00 0.00 0.00 65 1012.3
20260502020554 57 181 0.0 5.2 0.00 0.00 0.00 64 1012.2
20260502020059 57 175 0.9 5.2 0.00 0.00 0.00 64 1012.2
20260502015550 57 175 0.9 8.7 0.00 0.00 0.00 64 1012.3
20260502015054 57 180 0.9 8.7 0.00 0.00 0.00 63 1012.3
20260502014557 57 178 1.7 8.7 0.00 0.00 0.00 63 1012.2
20260502014052 57 202 0.9 4.3 0.00 0.00 0.00 62 1012.1
20260502013553 57 192 0.9 5.2 0.00 0.00 0.00 62 1012.0
20260502013105 58 194 0.9 6.1 0.00 0.00 0.00 61 1011.9
20260502012552 58 199 0.9 7.8 0.00 0.00 0.00 61 1011.9
20260502012054 58 0 0.9 7.8 0.00 0.00 0.00 60 1011.9
20260502011559 57 200 0.9 6.1 0.00 0.00 0.00 60 1011.7
20260502011053 57 192 0.9 5.2 0.00 0.00 0.00 59 1011.5
20260502010553 57 193 0.9 5.2 0.00 0.00 0.00 59 1011.5
20260502010058 58 193 0.9 4.3 0.00 0.00 0.00 58 1011.5
20260502005553 58 193 0.0 1.7 0.00 0.00 0.00 56 1011.4
20260502005053 58 0 0.0 0.9 0.00 0.00 0.00 55 1011.4
20260502004554 59 0 0.0 0.9 0.00 0.00 0.00 54 1011.3
20260502004054 59 0 0.0 0.9 0.00 0.00 0.00 53 1011.1
20260502003552 60 0 0.0 0.9 0.00 0.00 0.00 52 1011.0
20260502003056 60 0 0.0 0.9 0.00 0.00 0.00 52 1011.0
20260502002555 61 0 0.0 0.0 0.00 0.00 0.00 51 1011.0
20260502002052 61 0 0.0 0.9 0.00 0.00 0.00 51 1010.9
20260502001629 61 0 0.0 0.9 0.00 0.00 0.00 50 1010.9
20260502001052 62 0 0.0 2.6 0.00 0.00 0.00 50 1010.9
20260502000552 62 0 0.0 2.6 0.00 0.00 0.00 49 1011.1
20260502000115 62 0 0.0 3.5 0.00 0.00 0.00 49 1011.0
20260501235557 63 0 0.0 3.5 0.00 0.00 0.00 49 1011.0
20260501235053 63 193 0.9 3.5 0.00 0.00 0.00 49 1010.8
20260501234559 63 193 0.9 4.3 0.00 0.00 0.00 48 1010.9
20260501234053 64 0 0.9 4.3 0.00 0.00 0.00 47 1010.9
20260501233551 64 190 0.0 5.2 0.00 0.00 0.00 47 1010.8
20260501233057 64 0 1.7 6.1 0.00 0.00 0.00 46 1010.8
20260501232552 64 193 0.9 6.1 0.00 0.00 0.00 45 1010.8
20260501232052 65 184 2.6 6.1 0.00 0.00 0.00 45 1010.8
20260501231604 65 200 1.7 6.1 0.00 0.00 0.00 44 1010.8
20260501231053 65 192 0.0 4.3 0.00 0.00 0.00 43 1010.8
20260501230553 65 191 0.9 4.3 0.00 0.00 0.00 42 1010.8
20260501230056 65 213 0.0 3.5 0.00 0.00 0.00 42 1010.8
20260501225556 66 0 0.0 3.5 0.00 0.00 0.00 42 1010.8
20260501225054 66 246 1.7 7.0 0.00 0.00 0.00 41 1010.9
20260501224607 66 186 1.7 7.0 0.00 0.00 0.00 40 1011.0
20260501224049 66 0 0.9 5.2 0.00 0.00 0.00 40 1011.0
20260501223553 67 177 0.9 7.0 0.00 0.00 0.00 41 1011.0
20260501223054 67 177 1.7 7.0 0.00 0.00 0.00 40 1011.1
20260501222557 67 0 2.6 9.6 0.00 0.00 0.00 40 1011.1
20260501222052 67 0 1.7 9.6 0.00 0.00 0.00 41 1011.2
20260501221556 68 190 2.6 10.4 0.00 0.00 0.00 40 1011.3
20260501221053 68 128 0.9 10.4 0.00 0.00 0.00 41 1011.2
20260501220554 68 169 1.7 7.8 0.00 0.00 0.00 40 1011.2
20260501220059 68 229 1.7 7.8 0.00 0.00 0.00 41 1011.4
20260501215552 68 218 1.7 7.8 0.00 0.00 0.00 40 1011.1
20260501215053 68 183 1.7 7.0 0.00 0.00 0.00 40 1011.2
20260501214600 68 143 1.7 7.8 0.00 0.00 0.00 40 1011.1
20260501214054 68 205 1.7 7.8 0.00 0.00 0.00 39 1011.1
20260501213551 68 221 1.7 7.0 0.00 0.00 0.00 39 1011.1
20260501213058 68 178 0.9 6.1 0.00 0.00 0.00 39 1011.1
20260501212552 68 192 1.7 6.1 0.00 0.00 0.00 38 1011.1
20260501212049 68 211 1.7 6.1 0.00 0.00 0.00 38 1011.2
20260501211555 69 190 2.6 7.0 0.00 0.00 0.00 37 1011.1
20260501211052 69 193 1.7 7.0 0.00 0.00 0.00 36 1011.0
20260501210552 69 176 2.6 7.0 0.00 0.00 0.00 37 1011.3
20260501210101 69 202 1.7 7.8 0.00 0.00 0.00 38 1011.1
20260501205555 69 148 3.5 8.7 0.00 0.00 0.00 38 1011.2
20260501205052 69 213 1.7 8.7 0.00 0.00 0.00 39 1011.3
20260501204557 69 248 1.7 7.8 0.00 0.00 0.00 38 1011.3
20260501204052 69 190 3.5 9.6 0.00 0.00 0.00 39 1011.5
20260501203553 69 191 1.7 10.4 0.00 0.00 0.00 38 1011.6
20260501203100 69 193 1.7 10.4 0.00 0.00 0.00 39 1011.6
20260501202553 69 124 4.3 9.6 0.00 0.00 0.00 38 1011.7
20260501202053 69 150 3.5 8.7 0.00 0.00 0.00 38 1011.8
20260501201558 70 187 1.7 7.0 0.00 0.00 0.00 39 1011.9
20260501201053 69 184 1.7 5.2 0.00 0.00 0.00 39 1012.0
20260501200552 69 143 1.7 7.8 0.00 0.00 0.00 39 1011.9
20260501200057 70 290 2.6 7.8 0.00 0.00 0.00 39 1012.1
20260501195549 69 238 1.7 6.1 0.00 0.00 0.00 39 1012.2